Theta_e
346 347 350 354 355 355 355 355 356 356 356 356 355 356 355 355 355 355 354 354 354 353 353 353 354 353 352 353 352 352 350 350 350 349 349 349 348 346 344 344 345 345 345 344 343 344 348 351 350 349 348 349 349 349 348 349 348 348 348 348 347 347 347 347 347 345 345 345 346 347 347 347 347 347 347 347 346 346 345 345 343 340 339 340 343
345 348 350 351 354 355 355 354 355 355 355 355 355 355 355 354 354 354 354 354 354 353 353 354 354 353 352 352 352 352 351 350 349 349 348 348 348 347 345 344 344 345 344 344 344 343 343 344 349 348 348 348 348 348 347 346 346 346 346 346 346 346 346 347 347 345 345 345 346 346 346 347 347 347 347 346 345 345 345 345 344 340 338 342 343
347 348 350 351 355 355 355 355 355 354 354 354 355 354 354 354 354 354 354 354 353 353 354 354 354 354 353 352 351 351 350 350 349 348 348 347 347 346 346 344 344 344 344 344 344 343 343 342 347 347 348 347 346 346 346 345 345 345 344 344 345 345 345 345 345 346 347 346 346 346 346 347 346 346 346 346 346 345 345 344 344 343 340 343 343
345 347 349 352 354 355 355 354 354 354 354 354 354 354 354 354 354 354 354 353 354 353 354 354 353 353 353 353 352 352 351 350 349 348 347 346 346 347 345 343 343 344 344 344 344 343 344 346 348 347 347 346 346 346 346 346 346 346 346 345 346 345 346 345 344 343 344 346 346 345 344 337 342 344 346 347 347 346 345 345 343 344 344 343 344
345 347 349 350 352 354 354 354 354 354 354 354 354 354 354 354 355 354 354 354 353 354 354 354 353 353 353 353 353 352 351 349 349 347 346 347 347 347 343 344 344 344 344 343 343 344 344 346 346 346 346 346 347 346 346 346 346 346 346 346 346 346 347 347 346 347 346 343 345 348 340 336 339 345 346 347 346 346 346 346 344 344 345 344 344
346 348 349 349 350 351 354 354 353 354 353 354 354 354 354 355 355 354 354 354 354 354 354 354 354 353 353 352 353 352 350 349 348 347 347 348 348 344 343 343 343 344 344 343 345 344 345 345 345 345 346 345 347 347 347 346 346 346 346 347 347 349 348 348 349 348 349 349 348 344 342 336 338 342 346 346 345 346 346 346 346 345 345 344 343
346 347 348 348 348 351 353 353 353 353 354 354 354 354 354 355 355 354 354 354 354 354 354 354 353 353 353 353 352 352 351 350 349 347 347 346 347 345 342 343 343 344 343 345 345 345 344 344 345 345 346 347 347 346 346 345 346 345 347 348 349 350 351 351 351 352 351 350 342 343 342 334 340 342 346 345 345 347 346 345 345 346 346 345 344
345 346 347 348 348 352 353 353 353 353 353 354 354 354 355 354 354 354 354 354 354 354 354 354 353 353 352 352 352 352 351 349 347 345 344 345 346 346 344 342 343 343 343 344 345 345 345 345 346 346 347 347 345 346 345 346 346 347 348 348 350 351 351 351 352 352 353 349 344 343 336 332 337 341 345 344 346 345 345 345 345 345 345 345 344
344 345 347 347 349 353 353 353 352 353 353 354 354 355 354 354 354 354 354 354 354 354 354 353 353 353 353 352 352 351 349 347 346 346 345 344 344 343 342 342 342 342 344 347 346 345 345 345 346 347 346 346 346 346 345 345 346 346 348 348 349 350 350 350 351 352 348 344 343 332 331 334 338 340 344 345 345 346 346 345 345 345 345 344 344
345 346 347 347 348 352 352 352 353 353 353 354 354 354 354 353 354 354 354 354 354 354 353 353 353 353 352 352 351 349 349 349 348 347 347 345 344 344 342 342 342 343 344 345 345 345 345 345 346 347 346 346 344 346 345 345 346 347 347 347 348 348 349 350 351 350 345 345 334 332 336 340 336 339 344 346 346 346 346 346 347 345 345 345 345
345 345 346 347 348 351 351 352 353 353 354 354 355 354 354 354 354 354 354 354 354 353 353 353 352 352 352 351 351 350 350 349 347 346 346 345 344 343 343 343 343 343 345 345 346 346 346 347 347 346 345 343 346 345 345 347 347 347 347 348 348 348 349 350 351 343 343 343 337 341 345 347 338 340 347 346 346 346 346 346 346 346 346 345 345
345 345 345 347 352 351 351 352 353 353 354 355 354 354 353 353 353 353 354 354 353 353 353 352 352 352 352 351 351 350 348 347 346 345 344 344 343 342 342 343 343 344 345 346 346 346 348 347 346 343 344 344 345 346 344 347 345 347 348 348 348 349 351 351 348 342 341 342 335 335 336 339 342 346 348 348 347 347 347 346 346 346 345 345 344
344 344 346 348 348 351 351 352 353 354 354 354 354 354 353 353 354 353 353 353 353 353 352 352 352 351 351 351 350 349 348 346 345 344 344 344 344 344 343 343 344 344 346 347 347 348 347 345 343 344 344 345 345 345 347 346 347 347 348 348 349 350 351 353 341 340 339 329 335 335 337 339 343 349 348 349 349 348 348 347 346 345 344 344 343
344 345 346 346 347 352 352 352 353 354 354 354 354 353 353 353 353 353 353 352 352 352 352 351 351 351 350 349 349 348 347 346 344 344 344 344 343 344 344 344 344 345 346 346 346 347 345 344 344 345 345 346 347 344 347 346 347 347 347 349 350 351 352 349 345 338 337 336 337 335 336 339 342 349 348 348 348 349 348 346 345 344 345 344 344
344 344 345 346 348 348 353 353 354 354 354 353 354 354 354 353 353 353 352 352 352 351 351 351 351 350 349 349 348 347 346 346 344 343 343 343 343 343 344 344 344 345 345 345 345 345 345 344 345 346 347 345 347 346 347 348 346 347 348 349 349 352 352 346 341 337 338 338 337 336 336 340 348 348 345 346 347 348 348 347 346 345 345 346 346
344 344 346 346 346 348 349 354 354 354 354 354 353 354 353 353 352 352 352 351 351 351 351 350 349 348 348 347 347 346 346 345 344 343 343 343 343 342 343 343 344 344 344 344 345 345 345 347 346 346 345 345 344 345 347 346 347 347 347 348 348 350 352 352 338 337 338 338 340 341 340 343 348 348 346 346 346 347 347 347 346 346 346 346 345
344 345 345 345 346 347 349 351 353 354 354 354 354 353 353 352 352 352 351 351 351 351 350 349 348 347 346 345 344 344 344 343 344 343 343 343 343 343 343 343 344 343 344 344 344 344 344 346 345 344 344 345 346 345 346 347 348 346 349 348 349 350 352 350 338 340 341 343 344 344 343 344 349 350 349 348 348 347 347 347 347 346 346 345 345
344 343 343 345 345 347 350 351 351 351 351 353 353 353 352 352 352 351 351 351 350 350 349 348 346 345 344 344 343 342 342 342 343 343 343 343 343 343 343 343 343 343 344 344 344 344 344 345 344 345 344 346 346 346 346 346 346 347 348 347 351 351 350 348 339 342 344 347 345 347 345 349 351 351 350 349 349 348 347 347 346 346 346 345 344
342 342 342 343 343 347 349 350 351 350 350 350 350 351 352 351 351 351 351 350 350 349 348 346 346 345 345 345 344 343 342 342 342 343 343 343 343 343 343 344 343 344 344 344 344 344 345 344 346 344 346 346 346 346 346 347 347 348 348 350 350 348 349 343 342 343 344 344 345 346 346 349 350 350 350 349 348 347 347 347 346 346 345 344 344
340 340 340 340 342 346 348 349 349 350 349 349 349 349 351 352 351 351 350 350 349 349 347 346 345 345 345 344 343 342 341 340 342 341 343 344 344 343 344 343 344 343 344 344 345 344 346 345 344 345 345 345 347 346 346 347 347 347 348 348 345 347 336 340 343 342 342 344 346 345 348 349 349 349 348 348 347 347 346 345 345 345 345 344 344
339 338 337 338 342 345 347 347 348 349 349 349 348 348 350 351 351 351 351 350 349 348 346 346 345 346 345 345 343 340 338 337 338 337 343 342 343 344 344 344 343 343 343 343 344 344 345 345 344 344 345 346 345 346 347 346 347 347 347 346 347 338 339 341 342 343 342 343 344 345 349 348 348 348 348 348 347 347 345 345 345 345 344 343 343
335 335 337 338 343 344 345 346 347 348 348 348 349 349 350 350 347 347 348 347 348 348 344 342 348 340 346 343 339 342 339 338 337 343 340 341 342 344 344 345 344 344 343 344 344 344 344 344 344 344 345 345 346 338 340 341 343 346 346 347 339 339 341 340 340 340 341 342 345 345 347 348 348 348 348 348 348 346 345 345 344 344 343 343 342
334 335 335 338 342 343 344 346 347 347 347 347 348 348 348 347 346 346 346 347 348 346 342 344 339 339 340 340 342 341 340 339 340 343 344 345 343 343 344 344 345 345 345 345 345 346 345 344 345 345 345 347 340 336 337 334 332 343 344 340 339 340 340 339 338 338 339 340 342 346 346 346 347 347 347 347 347 346 345 343 344 343 342 342 341
334 335 334 339 341 340 343 345 345 346 346 346 347 347 346 346 345 345 344 343 343 343 340 341 339 338 339 338 339 341 344 340 349 349 349 343 340 344 345 344 346 345 347 346 346 347 346 347 346 346 347 345 337 336 335 332 330 335 335 337 338 343 338 336 336 335 336 340 340 343 344 344 345 346 346 346 346 344 344 344 343 342 341 340 340
336 337 337 338 339 339 340 344 345 346 345 346 346 345 345 345 344 343 342 341 340 339 340 339 339 337 338 339 340 343 346 344 344 344 341 341 339 339 339 339 340 339 346 338 336 341 341 340 340 343 340 338 337 333 332 330 337 337 336 339 340 342 339 336 335 334 334 336 338 341 341 341 342 343 344 344 344 343 343 342 342 341 340 338 339
338 336 335 337 338 338 340 344 344 344 345 345 345 346 346 343 343 342 341 339 340 339 340 339 338 337 338 340 345 344 344 345 345 343 343 341 339 338 341 339 339 341 344 341 338 338 336 339 334 333 336 336 332 330 337 335 336 336 337 339 340 341 336 335 334 333 333 334 337 339 338 338 339 340 341 341 342 342 342 342 342 341 339 337 337
336 336 337 338 339 338 338 343 343 343 344 346 346 346 344 344 343 342 339 338 339 339 339 338 338 338 341 343 343 342 341 341 342 342 342 340 341 341 340 341 341 341 344 338 341 342 336 336 335 335 330 331 335 337 339 337 336 337 338 340 340 339 335 334 333 332 331 332 336 337 336 335 335 335 336 337 337 338 339 339 340 340 337 334 334
336 336 337 339 340 338 339 341 342 343 344 346 345 344 343 343 343 345 341 340 339 339 338 339 340 342 344 345 345 343 343 342 343 341 341 339 340 340 341 343 344 341 345 342 341 340 339 340 339 341 342 341 339 339 338 339 336 335 335 337 339 338 335 333 332 331 330 330 331 333 333 332 332 332 332 333 334 334 334 335 335 336 337 332 330
335 336 337 338 339 340 340 340 342 342 344 345 343 344 343 342 343 342 340 344 339 338 337 341 341 342 344 346 347 343 343 342 341 342 341 340 342 342 342 343 343 341 341 340 342 341 342 343 340 339 337 338 337 338 338 335 340 338 334 333 335 337 336 332 331 329 327 326 326 329 331 330 329 328 328 328 329 330 331 331 330 331 332 333 329
336 336 337 338 339 341 340 339 341 341 343 343 341 343 342 342 342 341 340 344 338 338 339 340 340 342 342 345 347 344 341 341 341 340 340 340 339 339 343 341 341 341 341 339 342 341 341 341 341 339 340 338 338 338 337 338 337 337 336 333 332 333 334 332 329 326 325 324 325 326 327 327 325 324 323 324 324 325 326 327 327 327 327 329 329
336 336 337 337 339 340 340 340 340 342 341 341 340 341 342 341 341 340 340 340 339 340 340 341 341 342 341 342 343 344 343 340 339 338 339 338 338 339 340 343 341 341 342 340 344 343 343 339 338 338 339 338 336 337 339 335 333 330 331 329 328 329 330 330 327 324 323 323 323 324 324 326 324 323 322 321 322 322 322 323 324 325 325 326 328
335 335 337 338 338 338 339 339 339 341 341 340 340 340 341 340 340 339 338 339 341 338 339 341 342 339 339 341 341 342 345 340 339 338 338 338 338 340 340 340 340 341 343 343 342 343 342 342 339 339 338 337 335 335 333 325 325 324 325 326 326 325 324 325 326 324 324 323 322 321 321 323 324 323 322 322 321 321 321 322 322 323 324 323 324
336 337 337 338 337 337 337 338 339 341 339 339 339 339 340 340 340 338 337 342 340 339 339 339 341 339 340 342 342 343 344 339 338 339 340 339 339 338 338 339 341 340 342 344 342 342 343 339 338 338 338 336 334 331 329 325 324 323 323 322 323 323 323 321 320 322 324 324 322 321 320 321 319 323 323 322 321 320 320 320 320 321 321 322 321
336 336 337 337 338 339 339 339 340 341 339 338 339 339 340 340 340 338 341 340 338 338 341 342 343 341 341 341 342 343 343 342 340 339 340 339 338 337 338 339 340 341 342 344 340 339 338 334 334 332 343 331 326 324 323 322 322 323 322 321 320 319 319 320 318 317 316 315 316 316 317 317 316 316 320 321 321 320 320 320 320 320 320 321 321
337 336 336 336 338 338 339 338 341 340 340 339 340 339 340 340 339 338 340 338 338 339 341 343 342 341 342 341 342 341 339 339 340 340 339 337 337 338 338 338 339 340 342 341 338 335 333 331 331 331 333 327 326 325 322 321 320 320 320 320 319 318 317 314 314 314 313 312 312 312 311 311 311 313 315 312 323 321 320 319 320 320 319 319 320
336 335 336 337 337 337 338 337 339 339 339 341 340 341 340 339 339 343 339 339 339 341 341 342 344 344 343 341 341 341 339 339 341 342 339 336 338 336 337 336 337 338 340 337 337 333 332 331 330 330 328 326 323 320 320 318 318 317 317 316 316 318 315 314 313 312 312 310 309 310 310 311 312 312 316 308 308 318 321 319 319 318 318 317 318
336 335 335 336 336 336 338 337 337 338 339 340 340 340 340 339 339 340 339 340 339 338 339 342 344 344 342 340 340 341 338 339 339 342 338 338 336 335 337 336 339 338 337 335 334 334 331 329 326 328 329 323 321 319 317 316 316 315 315 316 316 315 313 313 312 313 314 309 307 308 309 310 313 318 307 308 309 308 319 321 320 319 318 317 316
336 336 337 336 335 336 336 338 338 338 340 339 339 339 340 338 339 339 342 339 337 337 339 342 343 343 342 340 341 340 339 338 338 339 339 339 339 337 337 336 336 338 333 334 330 331 330 327 323 324 328 324 319 317 315 315 315 314 313 313 312 311 313 312 315 317 310 310 307 306 308 309 308 308 308 308 308 309 308 315 317 317 317 316 315
337 337 337 337 336 336 336 339 339 338 340 339 339 339 339 337 338 339 338 336 336 336 338 339 341 342 340 340 341 340 339 338 338 338 335 338 338 336 336 337 336 335 332 330 329 328 327 325 323 324 325 324 319 316 314 314 314 313 313 312 311 311 313 315 311 309 309 311 316 315 312 307 308 308 307 307 307 308 307 306 305 305 307 316 315
337 337 336 336 336 336 337 337 338 339 340 339 339 337 336 335 334 333 334 335 334 335 336 338 342 340 340 339 338 338 338 337 338 338 336 338 335 333 335 335 333 336 331 328 326 325 324 323 324 320 318 318 317 315 315 312 310 310 312 310 310 311 312 311 309 310 310 308 308 310 310 310 309 308 309 309 306 307 306 306 312 305 307 312 315
336 336 336 336 336 335 337 336 338 339 339 337 336 335 333 333 331 331 330 332 333 334 335 337 338 339 340 340 339 338 337 337 338 338 337 342 336 335 331 330 331 331 327 325 324 324 324 323 325 325 316 314 314 313 312 311 310 306 307 307 307 310 313 310 308 307 307 308 306 305 309 307 306 308 308 309 308 306 306 306 305 305 306 306 307
335 335 335 336 335 336 337 336 338 338 338 337 336 335 334 333 331 330 330 332 334 333 333 335 336 339 338 338 338 337 336 336 336 336 337 336 334 333 332 330 328 327 327 326 325 329 323 323 324 321 318 315 313 313 313 311 309 304 303 304 304 303 309 308 309 308 307 307 308 307 307 307 306 306 308 308 308 306 305 306 306 305 306 306 305
335 335 335 336 335 335 337 337 338 338 337 338 337 335 335 334 333 331 332 331 334 337 336 336 337 338 338 337 337 337 337 336 337 336 334 332 331 329 330 330 328 329 324 323 324 324 322 320 320 320 320 317 315 316 314 313 309 309 307 304 300 299 303 306 306 307 307 306 308 308 311 308 308 306 307 306 304 305 307 305 306 306 306 306 305
335 335 335 335 336 335 336 337 337 338 338 338 337 337 337 335 335 334 334 335 334 337 336 336 337 337 337 338 337 337 337 335 335 333 332 332 331 328 327 326 325 328 325 323 320 319 319 318 320 321 319 315 316 317 320 321 317 311 306 307 303 301 299 302 303 306 306 305 307 307 310 308 309 307 307 306 304 305 303 303 305 306 306 306 306
334 334 335 336 336 334 336 337 338 338 338 338 338 337 336 333 333 334 335 335 336 335 333 332 335 336 336 335 335 336 336 334 332 332 331 329 329 327 324 324 323 324 325 322 320 320 320 319 316 314 316 317 317 316 317 317 316 317 312 309 305 304 303 303 302 301 306 305 306 306 310 308 306 305 306 304 303 303 304 303 304 305 306 306 306
334 335 336 337 336 335 336 337 338 337 337 338 338 336 334 332 331 331 329 330 330 331 330 331 332 332 332 333 334 333 332 328 327 329 329 328 325 324 323 323 322 321 320 318 319 319 317 318 317 315 315 317 317 312 309 315 313 315 314 312 312 307 303 303 301 297 304 307 306 305 307 306 305 308 306 304 302 304 309 305 304 304 304 304 305
335 336 337 337 336 335 337 338 338 337 338 338 337 335 333 333 332 331 330 330 329 330 332 332 332 331 332 330 328 328 328 327 326 325 323 322 320 320 321 320 321 321 323 318 318 317 318 319 319 315 314 316 312 308 308 308 308 310 312 311 317 316 309 302 300 298 297 298 303 301 301 301 303 303 304 302 304 303 305 306 306 304 303 305 304
335 337 337 337 336 335 337 338 338 337 338 338 336 335 333 333 332 331 331 330 330 330 331 331 332 331 329 328 327 325 326 325 324 323 322 321 319 318 318 318 318 319 320 317 316 316 318 319 318 315 315 314 309 308 306 307 303 305 313 311 310 310 308 307 306 299 298 296 298 303 304 303 303 304 308 303 303 304 303 305 304 304 302 303 303
336 336 337 337 337 337 338 337 337 337 337 337 335 334 334 334 333 331 330 331 331 331 331 332 330 330 327 325 324 324 323 323 322 321 320 320 321 318 318 318 318 318 320 318 317 317 316 314 313 312 311 312 314 311 309 307 307 307 306 306 304 305 305 306 306 305 302 299 300 299 299 304 304 305 305 305 303 303 306 304 305 307 308 303 301
337 338 338 338 337 338 337 336 336 336 336 336 335 334 334 334 332 331 330 330 331 330 330 329 328 327 324 323 322 322 322 321 320 319 319 320 320 320 319 319 317 319 318 315 314 314 314 314 313 312 311 310 310 310 309 307 307 306 307 306 305 305 303 303 302 302 303 301 299 299 299 300 299 302 305 304 304 304 304 304 305 304 300 300 301
336 337 338 338 338 337 336 335 335 336 335 335 335 334 334 334 332 332 331 330 330 329 328 326 326 326 323 321 321 321 320 320 319 319 319 320 320 319 315 314 316 319 316 313 312 313 312 312 312 311 310 309 308 308 308 307 306 306 305 305 304 304 302 301 300 301 300 298 298 299 300 303 302 302 304 305 306 304 303 304 304 301 299 299 300
Wind_Speed
9 13 10 14 16 18 19 20 19 19 19 17 17 16 15 15 14 14 14 14 13 12 12 13 12 13 13 13 14 14 13 14 13 13 13 14 14 13 12 12 12 12 14 14 13 13 15 16 14 14 14 14 13 12 12 12 11 10 10 9 9 9 9 9 9 9 9 8 10 11 11 11 12 12 13 14 15 15 14 14 12 8 5 10 14
14 11 10 12 17 17 19 20 19 19 19 18 17 16 15 15 14 14 14 13 12 12 13 13 12 12 13 13 13 13 13 13 13 13 12 13 13 13 12 11 11 11 13 14 14 13 12 12 15 14 13 12 12 11 11 11 10 9 8 7 7 7 7 7 8 9 8 9 9 10 12 13 12 12 12 13 14 14 13 13 13 5 3 12 13
14 11 9 12 18 18 18 19 20 19 19 18 17 16 15 15 14 14 13 13 12 12 13 12 12 12 13 12 12 12 13 13 12 12 11 12 12 12 12 11 10 11 13 12 12 12 12 11 14 13 13 12 11 11 10 10 9 9 8 7 6 6 6 6 5 4 5 7 8 11 11 13 13 12 12 13 13 13 13 13 13 11 7 14 12
16 10 9 13 18 17 17 20 19 19 19 18 18 16 15 15 14 14 13 12 12 12 12 13 12 11 12 12 12 12 12 13 12 11 11 11 12 12 12 10 10 11 12 12 12 12 11 13 13 12 11 11 11 11 10 9 8 7 6 6 5 6 6 5 5 5 4 3 5 8 3 3 8 12 12 12 12 13 12 13 13 14 14 13 14
16 12 10 10 12 15 17 18 18 19 19 19 17 17 16 15 14 13 13 12 12 12 13 12 12 12 12 12 12 11 12 13 11 11 11 11 12 13 12 11 11 11 11 12 13 12 12 13 12 12 12 11 11 10 9 8 7 6 6 6 6 6 5 5 4 4 4 2 1 3 2 3 4 10 10 11 11 11 11 12 13 13 13 13 14
15 12 9 9 11 13 17 18 19 19 19 18 17 16 16 15 15 14 13 13 13 13 12 13 12 12 12 12 11 11 11 11 12 12 11 11 11 13 13 12 11 11 10 12 13 12 12 12 12 11 11 10 9 9 8 8 7 7 8 7 7 7 7 7 6 5 5 5 3 1 1 2 3 5 10 10 10 10 11 12 13 13 13 13 13
17 11 10 9 9 12 16 17 19 19 18 18 17 16 16 15 14 14 13 13 12 12 13 13 12 12 12 12 12 11 11 13 12 11 10 10 12 12 12 11 10 10 10 14 13 12 12 12 11 10 9 9 9 8 8 8 7 8 7 8 8 9 9 9 9 8 6 3 2 2 0 3 2 4 9 9 10 12 12 12 13 13 13 13 13
13 12 10 9 8 13 16 17 19 19 18 17 17 16 16 16 15 14 14 13 12 12 13 12 12 12 12 12 12 12 12 13 12 11 10 10 9 11 11 10 9 9 11 13 13 13 12 12 10 9 9 8 8 8 8 8 8 7 8 8 9 10 10 10 10 9 8 2 2 2 3 3 4 4 8 10 11 12 12 12 12 12 12 13 12
13 12 11 10 10 17 16 15 17 19 18 17 16 17 16 15 15 14 14 13 13 13 13 13 12 12 12 12 13 12 12 12 12 11 11 10 9 9 9 10 8 7 11 10 10 12 11 10 9 9 8 8 8 8 8 7 7 8 8 9 9 10 11 11 11 12 6 2 0 6 6 4 4 3 8 10 11 11 11 9 8 10 11 12 11
14 11 11 9 10 16 16 16 16 18 18 18 17 16 16 15 14 14 14 14 13 13 13 13 13 13 12 13 13 12 11 11 11 11 10 10 9 9 10 9 9 9 10 11 11 10 10 9 10 8 8 7 7 7 7 7 7 8 9 9 10 10 10 10 11 8 5 4 2 7 5 8 4 4 7 10 10 10 10 10 8 8 8 11 12
14 12 11 10 12 15 15 15 15 17 18 18 17 16 16 15 15 14 14 15 14 13 13 13 13 13 12 13 13 12 12 12 11 10 10 10 9 9 9 9 8 9 10 10 10 9 9 10 8 7 7 6 6 6 7 7 7 8 9 10 10 10 9 10 9 4 4 4 1 7 9 11 5 3 8 9 9 9 9 9 9 9 10 11 11
14 12 11 10 15 16 15 15 15 16 17 18 17 16 16 15 15 14 14 14 14 14 13 13 14 13 12 12 12 12 12 11 10 10 10 9 10 9 9 9 8 8 9 9 10 10 8 7 7 6 5 5 5 6 7 7 8 8 9 10 11 11 12 13 8 5 2 3 2 7 7 6 4 5 9 8 8 7 8 9 9 9 9 10 9
15 13 11 11 11 15 15 15 15 15 18 18 17 16 16 16 15 15 14 14 14 14 14 14 13 13 12 12 12 12 12 11 10 10 10 10 10 10 9 9 8 9 8 9 9 9 7 6 6 4 4 4 5 5 6 7 7 8 8 9 9 9 11 12 8 8 3 5 7 7 6 4 3 8 7 7 7 6 7 7 8 7 8 8 8
14 12 11 11 9 16 15 15 14 15 16 16 16 15 15 15 15 14 15 14 15 15 14 14 14 13 12 12 11 10 11 11 10 9 9 9 10 9 9 9 10 9 8 8 8 8 7 5 4 4 4 5 5 6 6 6 7 7 8 7 7 8 11 7 10 6 11 8 6 7 5 3 3 6 6 7 7 7 7 7 7 7 9 9 9
15 14 12 10 11 10 18 14 14 15 14 14 13 14 14 14 14 14 14 15 16 15 15 15 14 13 12 11 10 10 10 10 10 9 9 9 9 9 9 9 10 10 8 7 6 6 6 5 3 3 3 4 5 5 6 6 7 7 7 7 7 7 10 7 6 6 7 8 7 7 5 3 6 5 7 7 7 7 7 7 7 9 9 10 10
17 15 12 9 10 11 11 16 16 15 14 14 13 14 14 15 15 16 15 15 15 15 15 14 14 13 12 11 10 10 10 10 10 9 8 8 8 9 8 8 8 9 8 6 5 4 4 4 3 1 2 2 3 4 5 7 7 8 8 8 8 10 9 7 5 6 6 6 6 6 6 4 7 7 7 7 7 6 7 7 8 8 10 10 10
15 14 13 11 10 10 9 10 13 18 15 14 13 14 15 15 14 15 16 16 16 16 15 14 13 12 12 11 10 10 10 10 10 9 9 8 8 8 8 8 8 8 7 6 4 3 3 3 2 0 2 3 3 4 5 6 7 8 8 8 8 10 9 9 6 7 6 7 7 6 4 3 5 8 9 9 8 7 7 8 8 9 10 10 9
15 14 13 11 10 9 9 9 11 10 9 13 15 16 15 16 14 14 15 16 16 15 14 13 12 12 12 11 11 10 10 10 9 9 9 9 8 8 8 8 8 8 7 6 4 3 3 3 2 1 2 3 4 5 5 6 6 7 8 8 11 10 10 9 6 7 8 8 6 5 4 5 7 9 10 10 9 9 8 9 9 10 11 10 11
13 13 12 12 10 10 9 8 9 8 8 6 6 12 17 16 15 16 16 16 15 15 14 13 13 12 12 11 11 10 10 10 9 9 8 8 8 8 7 7 7 7 7 6 5 4 4 3 4 3 3 4 5 6 6 6 7 7 9 10 10 10 10 7 7 8 7 6 5 5 5 8 10 12 13 12 12 11 11 11 11 11 11 11 11
12 13 11 10 10 10 9 8 8 8 7 6 7 8 13 16 16 16 16 16 16 14 13 12 13 12 12 10 10 7 8 6 10 7 9 9 8 6 8 7 7 8 7 7 7 6 6 6 5 5 5 6 7 6 6 6 6 7 9 10 10 9 6 4 9 8 6 7 6 5 8 11 11 13 12 12 13 12 12 12 13 13 14 15 16
9 12 11 10 11 10 10 8 8 9 8 7 6 7 10 15 14 16 16 16 14 14 13 13 12 10 9 9 9 4 4 4 5 3 8 4 8 9 9 8 8 8 8 8 7 8 7 8 7 7 7 7 6 6 6 6 6 6 7 8 8 5 4 7 7 6 6 5 6 6 11 12 12 13 13 13 14 14 14 14 15 16 16 16 17
10 10 10 11 11 10 10 9 8 9 8 7 6 6 8 11 8 9 9 11 12 12 9 6 8 4 9 7 4 5 4 4 4 7 3 4 5 9 9 8 8 8 8 8 8 8 8 8 8 7 6 5 6 3 3 5 6 2 1 3 2 3 6 7 7 6 6 5 6 9 15 14 14 14 14 14 15 15 15 15 16 17 17 17 17
11 10 10 12 11 11 11 10 9 10 10 8 6 6 7 6 7 7 7 9 9 8 5 6 4 4 4 4 4 3 4 4 4 6 6 8 5 9 8 7 7 7 7 7 8 8 8 8 8 7 5 5 3 3 3 3 1 3 3 2 2 5 7 7 7 6 6 6 5 14 16 16 16 16 16 16 16 16 16 16 16 16 17 17 16
12 11 10 10 11 11 12 11 11 10 10 7 7 7 6 6 6 6 6 5 5 5 5 5 4 4 5 4 4 4 4 5 8 11 9 5 5 8 8 6 6 6 6 5 5 7 8 8 8 7 4 2 3 3 3 2 2 3 2 4 4 6 7 6 6 5 5 7 7 16 16 17 17 16 17 16 17 16 17 17 17 17 17 16 16
10 8 10 10 11 11 10 11 11 11 10 8 8 7 7 6 6 6 6 5 5 5 5 4 5 5 5 5 4 4 4 5 4 4 5 4 3 3 2 2 1 1 5 2 2 3 4 2 2 3 2 3 4 5 4 0 2 3 2 4 5 6 7 6 6 5 5 5 7 15 16 15 16 16 17 17 16 16 16 16 17 17 16 16 18
8 10 11 11 10 11 12 11 10 10 10 8 8 8 8 7 7 6 6 5 6 5 5 5 5 6 5 4 4 3 4 4 4 5 4 4 4 3 3 3 3 3 3 4 3 3 3 4 3 4 5 5 4 4 2 5 5 4 3 4 5 7 6 6 5 5 5 5 7 15 15 15 15 15 15 15 15 16 15 16 16 17 16 16 18
8 10 11 9 10 9 10 11 10 10 11 9 8 8 7 7 7 7 7 7 6 5 5 5 5 5 5 4 6 5 5 5 4 4 3 2 2 1 2 3 3 2 2 4 3 4 5 4 5 5 3 4 2 2 4 5 4 5 4 4 4 6 6 6 5 5 5 5 8 16 15 15 15 15 15 15 15 15 16 16 17 17 17 16 17
9 10 10 9 10 11 10 10 10 9 9 9 9 8 7 8 7 8 7 7 6 6 5 6 6 5 5 5 5 5 5 5 4 4 3 2 0 0 0 1 1 1 1 3 3 1 2 3 2 3 2 2 3 2 4 3 3 4 5 3 3 4 5 6 6 5 4 5 6 12 14 14 14 15 15 15 15 15 15 16 16 16 18 17 16
11 11 9 10 10 10 9 10 10 11 9 9 9 7 7 7 6 7 7 7 6 5 6 5 6 4 3 4 5 5 4 4 4 3 2 1 0 0 2 3 2 3 2 2 2 1 0 3 2 2 1 2 3 5 4 5 5 4 4 4 5 4 6 6 6 6 5 5 6 8 14 15 14 14 15 15 14 15 15 15 15 15 16 17 16
12 11 10 8 8 10 9 9 9 11 10 8 7 8 7 8 7 7 6 6 6 6 5 5 5 5 4 2 5 5 5 4 4 2 2 0 2 1 1 2 2 3 2 2 3 2 4 2 3 4 4 3 3 3 3 3 2 3 3 4 3 5 6 6 6 6 5 5 5 6 13 14 14 14 15 15 16 16 16 15 15 15 15 15 15
12 12 10 8 8 9 8 8 8 10 9 9 7 8 6 8 7 6 6 6 7 6 6 6 5 4 4 4 4 4 4 5 4 2 2 1 1 0 1 1 1 4 4 4 3 5 3 3 5 4 3 2 2 2 2 2 4 6 4 7 7 8 6 6 6 6 5 5 5 4 7 13 14 15 15 16 16 15 15 15 15 15 14 14 14
13 13 10 8 8 8 9 8 7 9 9 9 8 7 8 7 7 6 6 5 7 6 6 6 7 4 4 6 2 3 4 5 5 2 2 1 0 1 0 1 2 2 4 5 3 2 3 4 3 2 2 3 2 3 5 9 7 6 7 7 7 9 8 6 6 6 5 5 5 5 4 5 12 14 15 15 14 14 14 15 15 14 14 14 14
9 12 12 11 10 8 9 7 7 9 7 8 8 7 7 6 7 6 6 5 6 7 6 6 7 5 3 6 4 3 4 4 3 3 2 2 0 1 1 1 2 3 2 2 3 2 2 2 2 2 1 2 5 7 6 7 7 6 8 7 7 7 7 7 6 5 5 5 4 4 4 3 4 10 13 13 13 13 12 13 14 15 14 14 14
10 9 11 12 9 7 6 6 7 9 8 7 7 7 7 7 6 6 6 6 6 7 6 7 8 6 5 6 4 4 4 4 4 4 4 4 2 1 1 3 2 1 1 2 1 1 2 4 4 2 3 5 9 6 8 7 6 6 6 6 7 6 6 6 6 7 6 5 4 3 3 3 4 4 4 10 11 10 11 11 12 14 14 13 13
10 11 14 12 11 9 6 7 6 7 8 7 8 8 7 7 7 6 6 6 6 6 6 7 7 6 6 6 5 5 4 4 3 4 3 1 1 1 0 1 3 1 1 1 2 2 5 3 4 5 6 7 7 7 8 7 7 8 6 6 6 6 7 6 6 6 6 5 5 4 5 3 3 3 3 3 6 9 10 10 10 11 13 13 12
13 13 12 11 11 10 7 8 6 7 7 7 8 8 8 7 7 7 7 7 6 5 6 6 7 6 6 6 5 5 5 5 4 4 3 2 2 2 1 2 1 2 1 4 2 5 3 4 3 5 6 5 8 6 6 8 7 7 6 6 6 6 6 6 6 6 5 5 6 5 6 5 5 5 5 5 6 4 8 7 8 9 11 11 9
13 14 13 11 11 11 9 8 9 9 7 7 8 7 8 7 7 8 7 6 6 6 6 6 7 7 6 6 6 5 4 4 3 6 8 8 6 7 6 4 3 1 4 4 4 5 4 4 4 5 6 6 7 8 6 7 7 7 6 6 5 6 6 6 5 5 5 6 4 4 5 4 4 6 5 5 5 5 4 6 6 6 7 8 6
14 14 13 13 12 11 9 8 8 8 7 7 8 7 7 7 6 7 6 7 6 6 6 5 6 6 6 6 6 5 5 4 3 2 6 8 8 7 6 6 4 4 3 4 3 2 4 4 3 4 5 6 6 8 7 6 6 6 6 6 5 6 4 5 4 4 5 4 4 4 4 4 5 4 5 4 4 4 5 7 9 9 8 6 5
13 14 13 12 11 10 8 8 9 8 7 7 7 8 7 6 5 7 8 6 5 5 6 5 4 5 6 6 7 5 5 5 3 3 3 2 4 5 5 4 4 5 6 5 4 3 4 3 5 6 5 5 6 6 8 7 7 6 6 5 4 4 4 3 3 4 5 4 4 3 3 3 4 4 4 4 3 4 4 5 5 5 5 12 11
13 13 14 13 11 10 7 8 8 9 7 7 7 7 6 7 7 7 7 5 4 5 4 5 4 5 5 5 6 5 5 4 4 4 3 3 5 6 5 3 4 6 6 5 3 3 4 5 7 8 9 7 6 6 7 8 7 7 5 5 4 4 5 4 4 4 4 5 4 4 5 3 4 2 3 2 3 4 4 4 3 2 3 6 10
14 15 14 13 12 11 10 10 8 9 8 8 7 8 7 7 5 6 7 5 6 4 5 4 4 4 4 5 5 5 4 3 3 3 3 5 5 5 6 6 6 6 6 5 4 4 3 3 5 5 9 8 4 4 4 8 9 5 6 4 5 4 3 4 4 4 4 4 4 5 4 4 3 1 0 2 2 4 4 3 2 1 1 1 2
14 15 15 13 12 11 11 11 8 9 8 8 8 8 6 7 7 7 6 6 6 5 5 4 4 5 4 4 5 5 5 3 3 3 4 6 6 5 6 6 6 6 5 4 4 3 3 2 3 6 4 8 4 4 6 7 3 5 5 3 3 3 2 3 3 3 3 4 4 4 3 3 3 3 1 1 1 3 3 3 2 1 1 0 1
16 15 13 12 12 11 11 11 8 8 8 9 9 8 5 7 7 5 8 5 3 4 5 5 4 5 4 4 4 4 5 4 3 3 6 6 6 5 6 6 5 5 6 4 4 4 2 2 3 6 5 2 4 4 6 3 5 4 4 5 2 1 1 2 1 1 3 2 2 2 2 2 0 1 1 0 2 2 1 1 1 2 2 2 2
13 13 13 12 11 10 9 11 9 8 9 8 8 6 8 7 7 8 7 6 5 5 6 5 4 5 5 4 4 5 5 4 3 5 5 5 5 6 6 6 6 4 6 5 4 4 3 2 2 4 7 6 3 2 1 1 5 7 3 3 4 4 1 2 2 1 1 3 3 1 2 2 1 3 1 0 3 1 1 3 3 3 3 3 3
14 14 13 13 10 11 10 11 10 10 9 9 9 8 9 8 7 7 6 6 5 5 6 4 5 5 4 4 5 4 4 4 5 5 5 5 5 6 6 5 5 4 4 5 4 4 3 3 4 4 5 7 6 3 1 3 5 4 3 4 2 1 3 3 3 1 0 1 1 3 2 2 1 1 0 1 3 2 2 3 3 3 3 4 4
15 13 13 13 11 10 10 10 9 9 9 10 10 9 9 10 10 9 9 8 8 7 8 8 6 6 6 4 4 4 4 5 4 5 5 5 6 6 5 5 6 6 5 5 4 3 3 4 3 5 4 4 7 5 3 0 3 3 2 2 3 3 5 3 3 2 0 1 3 4 3 3 3 2 1 0 2 1 1 1 3 4 4 4 3
14 11 12 12 12 11 10 12 11 9 9 9 11 10 9 9 11 9 9 10 10 6 6 5 6 5 5 5 4 4 5 6 5 6 6 6 6 6 6 6 5 5 4 6 6 5 4 4 3 5 3 5 6 5 6 3 2 1 1 1 2 1 7 6 2 2 1 2 0 3 1 1 1 1 2 3 1 1 1 1 3 4 5 4 3
14 12 12 11 13 13 11 12 10 10 9 10 11 11 11 10 10 9 8 9 9 9 8 6 5 5 6 6 5 5 5 5 6 5 5 6 6 6 6 6 5 5 5 5 6 4 6 5 5 4 4 3 6 7 5 4 6 2 0 2 3 4 5 2 4 6 5 4 3 1 1 1 1 0 0 0 2 2 3 3 3 4 5 4 4
13 14 13 12 12 10 11 11 11 10 10 11 11 10 10 11 10 9 8 6 7 7 6 5 6 6 7 5 5 5 5 5 5 5 5 5 4 5 5 5 5 4 5 5 4 5 5 6 6 6 5 5 5 4 5 3 4 2 2 3 4 4 4 3 2 2 2 3 1 3 2 1 1 2 4 2 3 3 4 4 3 3 3 2 4
13 13 11 11 11 10 12 13 12 10 10 11 11 10 10 10 10 9 10 9 8 7 7 7 7 7 7 5 5 5 5 5 4 4 4 4 4 3 3 4 5 5 5 6 6 6 5 5 5 5 5 7 5 7 6 5 5 4 4 3 4 3 4 5 5 4 3 3 4 3 4 5 4 4 3 4 4 4 4 5 3 3 1 4 2
12 13 13 12 12 12 13 14 13 10 11 12 11 11 10 10 10 10 11 12 11 10 9 8 7 7 7 6 6 5 5 5 5 3 4 4 5 5 6 6 6 6 6 6 6 6 5 5 5 5 6 7 6 7 6 5 6 6 6 7 6 6 4 2 1 3 3 2 4 4 1 3 5 2 4 5 4 3 3 4 1 1 3 2 6
Wind_Direction
138 137 139 137 130 128 127 125 122 121 119 118 117 116 115 113 111 109 107 106 104 104 106 103 101 99 101 99 94 93 91 90 86 83 83 85 88 86 90 95 98 101 101 102 102 104 101 105 99 93 87 85 84 84 82 83 84 82 81 78 75 72 73 76 80 85 85 88 90 94 91 85 78 72 67 65 66 70 76 77 72 69 60 64 66
143 136 137 137 131 127 127 126 124 123 120 118 118 118 116 115 113 111 110 108 108 108 108 107 106 103 100 99 97 93 91 88 87 85 84 86 89 91 89 90 95 98 102 105 107 105 102 102 99 96 89 87 85 86 86 85 85 85 83 80 72 70 68 70 77 80 84 89 90 88 88 87 80 73 69 68 69 70 73 75 73 80 75 65 63
126 132 137 137 130 130 127 127 126 124 122 122 121 120 119 118 117 114 112 111 111 111 109 111 110 106 102 99 99 97 93 90 88 84 85 86 88 88 88 92 100 101 99 104 107 103 99 106 96 97 90 87 89 88 87 87 87 84 79 75 70 67 64 60 57 59 66 84 94 87 82 86 81 74 72 69 68 68 67 69 69 67 68 67 65
128 133 137 136 131 130 130 129 128 126 124 124 123 123 123 122 119 117 115 114 113 113 113 114 111 108 109 105 103 100 95 91 85 82 79 81 85 85 89 96 102 101 100 95 93 103 112 104 97 96 94 93 90 87 87 86 81 73 67 62 60 59 54 53 51 48 34 46 108 98 69 56 78 75 72 69 66 65 63 64 65 66 74 68 65
126 133 136 134 131 132 131 128 129 128 126 126 126 126 126 125 121 120 119 117 116 115 118 118 113 112 111 108 103 100 98 95 90 83 76 79 86 88 91 100 104 103 105 104 104 109 110 104 98 95 91 92 87 84 81 76 68 55 41 34 31 23 28 24 23 18 31 9 287 78 58 71 82 75 73 69 64 62 63 65 63 62 62 67 57
128 131 135 133 134 133 131 131 131 131 130 129 130 130 128 126 125 124 122 120 117 119 121 120 115 111 109 109 107 106 102 97 91 83 81 83 87 89 93 102 104 110 110 103 103 105 106 101 99 94 91 86 84 77 69 61 51 38 25 13 7 3 1 3 8 357 340 338 308 23 307 92 84 79 75 70 64 58 74 68 62 58 56 56 52
127 130 133 135 131 134 134 134 133 132 133 132 132 131 131 129 128 128 125 122 121 120 122 120 116 114 116 115 111 104 95 96 93 88 82 87 94 94 97 104 111 114 114 106 105 108 106 99 93 91 87 81 72 64 56 48 41 27 15 7 359 359 358 358 351 345 329 303 256 182 154 126 112 92 78 73 67 63 71 60 53 51 50 49 51
126 131 134 133 134 136 135 136 135 134 135 134 134 134 133 132 132 131 127 126 123 124 122 120 119 118 117 113 109 110 104 98 96 91 86 81 90 104 105 105 112 116 114 114 115 112 107 100 91 88 83 72 64 53 45 40 30 20 13 4 2 357 356 352 343 333 325 293 193 161 147 151 104 98 82 74 68 66 62 55 52 48 47 47 48
129 131 132 133 138 137 137 137 136 137 136 136 136 136 134 135 134 133 131 127 127 125 124 123 122 121 116 113 114 109 104 99 96 94 89 85 84 86 94 107 113 105 102 98 102 103 98 97 97 86 74 64 52 45 38 26 20 17 7 5 3 358 355 345 342 334 333 341 200 130 142 131 104 94 81 75 69 64 62 57 49 48 46 46 46
130 125 128 136 142 141 139 139 138 138 137 137 137 136 136 136 136 135 133 130 128 128 126 124 124 121 118 118 113 112 110 104 102 97 95 94 92 99 102 108 115 113 109 107 103 100 103 106 97 78 63 51 45 35 25 24 10 5 3 2 359 357 347 341 330 328 328 337 120 121 122 112 96 86 89 80 72 65 59 56 54 51 47 45 43
123 125 130 135 142 138 137 140 140 140 139 139 139 138 138 138 138 136 134 131 130 129 127 126 125 123 122 120 118 115 111 107 105 102 102 102 103 105 112 116 121 119 119 116 112 112 111 97 81 75 59 46 34 27 23 12 7 360 359 356 352 347 342 332 329 303 309 336 150 105 103 100 96 89 98 90 80 71 60 54 49 46 43 41 39
119 125 132 135 140 138 141 142 142 141 141 141 140 140 141 140 138 137 134 132 130 130 129 127 124 125 126 124 120 115 110 111 109 110 110 110 110 113 112 113 118 121 121 118 115 105 91 86 80 73 67 44 34 21 17 5 3 358 354 351 349 347 342 333 323 297 289 306 130 92 94 96 106 112 100 91 84 70 60 53 48 45 41 39 33
125 130 133 137 137 142 141 144 144 143 143 143 142 142 142 141 139 138 136 132 130 129 128 126 126 127 127 125 121 119 117 114 117 117 117 115 115 115 119 122 120 119 118 118 115 101 95 86 80 63 50 41 30 20 8 4 360 355 350 347 344 346 349 337 333 327 324 75 86 75 83 88 98 106 98 93 83 70 59 53 45 41 39 30 23
121 126 132 134 139 143 143 144 144 144 144 144 143 143 142 141 140 137 136 134 132 131 129 129 127 127 127 127 127 125 123 121 120 124 126 124 122 123 121 128 132 128 130 126 122 108 103 90 79 60 29 27 17 3 1 356 353 346 342 342 347 353 356 341 343 358 79 85 86 89 75 74 88 89 90 83 72 63 52 47 36 26 24 18 14
124 129 133 137 141 142 146 143 144 146 144 144 143 142 140 139 139 138 137 135 134 134 134 132 131 130 129 126 127 129 129 129 128 130 132 129 124 126 128 127 133 133 135 136 121 110 105 101 83 50 36 8 2 352 348 343 341 336 334 338 351 10 5 357 347 28 55 67 58 69 69 73 64 70 70 68 64 56 46 36 20 21 18 26 24
125 130 131 135 140 146 145 148 148 146 145 144 143 142 141 140 142 141 138 137 136 136 135 135 136 134 131 128 133 135 135 134 133 136 138 132 126 125 129 133 133 140 140 141 133 119 121 111 92 52 6 359 335 340 335 332 328 328 331 338 354 13 357 3 357 41 60 58 57 47 46 45 48 65 61 61 56 51 41 33 20 21 24 24 19
125 130 132 138 142 145 147 143 147 147 146 143 143 143 142 141 142 141 140 138 138 137 137 139 136 132 132 134 135 138 139 137 139 143 143 138 134 129 130 137 141 143 150 144 132 144 143 128 123 103 307 317 318 314 320 318 318 319 322 331 3 7 353 15 40 61 58 57 58 49 39 30 61 68 64 59 55 48 41 31 26 20 23 23 21
129 134 137 140 145 147 142 144 147 145 147 146 146 146 144 143 141 142 140 139 138 138 140 141 136 136 137 140 143 143 141 142 145 149 149 145 139 138 138 142 146 152 150 155 169 187 177 167 175 184 262 281 293 293 289 296 304 311 314 329 16 0 347 21 71 68 60 57 53 55 33 50 63 64 62 58 57 51 45 40 34 27 26 26 24
133 136 138 146 149 147 145 145 141 144 144 142 146 149 146 145 145 143 141 141 140 143 143 141 141 141 143 148 147 142 142 145 153 153 150 148 150 148 151 150 157 158 162 166 183 196 208 201 205 216 234 256 264 267 278 292 302 310 319 357 14 0 351 16 69 63 60 55 45 46 46 49 56 58 58 56 54 50 48 46 41 38 35 33 30
136 140 145 152 150 147 146 148 145 146 144 146 147 146 149 148 147 145 144 143 146 147 145 145 146 147 150 150 144 143 144 149 154 156 157 159 160 158 163 167 168 171 177 184 189 202 211 219 214 222 232 244 251 264 282 297 308 317 353 10 7 358 352 38 70 67 60 57 53 45 53 57 59 62 62 62 59 57 53 50 50 48 47 48 49
141 149 154 154 149 146 150 150 150 149 150 147 143 144 152 150 148 148 148 149 151 151 150 151 151 153 153 150 148 136 140 148 151 156 166 168 170 170 171 175 176 182 186 194 198 206 213 220 222 224 235 244 262 284 292 291 303 347 0 8 357 353 358 74 72 64 56 53 44 44 52 59 61 62 62 62 62 61 61 60 60 59 59 58 55
148 156 162 153 150 152 155 154 150 157 150 147 146 150 152 150 151 153 153 154 157 155 154 154 155 161 158 155 146 162 158 160 162 168 167 176 184 179 177 179 182 188 194 201 208 216 223 226 230 236 243 262 274 287 297 304 312 329 320 17 340 359 66 71 74 68 59 44 53 57 57 59 62 63 64 67 68 67 65 62 58 58 57 57 58
153 161 165 156 156 157 157 156 156 158 150 149 149 153 148 149 153 151 154 156 163 155 155 160 156 162 152 160 171 182 168 169 184 174 179 175 175 180 183 181 191 197 202 210 217 223 233 239 247 252 256 274 302 308 316 305 23 201 122 82 19 67 79 78 76 74 66 59 49 59 59 57 59 61 63 63 64 64 62 61 59 59 60 60 59
158 165 155 158 156 157 159 158 160 156 153 153 149 152 154 156 155 153 151 157 162 156 169 163 157 163 171 171 185 202 184 185 193 179 170 164 180 182 182 191 196 212 221 229 245 244 241 248 253 260 283 312 283 274 264 274 219 109 138 84 63 73 85 82 83 75 70 69 66 63 58 56 57 59 63 61 60 61 63 62 60 60 60 58 56
155 141 145 157 160 157 154 161 160 155 156 154 152 158 160 157 160 156 158 166 166 171 178 170 167 176 184 180 185 204 175 176 165 131 123 147 155 162 169 164 199 238 231 228 246 252 250 253 260 252 215 226 240 242 240 154 106 95 86 94 85 90 97 100 96 87 78 75 71 69 65 61 57 54 57 58 61 61 62 65 63 62 58 52 51
132 137 151 155 159 159 153 159 161 157 157 155 157 162 163 164 167 164 163 174 173 179 185 182 176 184 186 182 168 161 120 114 98 119 129 140 156 169 172 188 196 215 202 214 231 230 230 209 229 222 213 218 224 265 282 156 132 136 102 79 100 106 111 104 100 97 83 78 78 77 73 67 63 59 56 54 53 52 54 57 59 56 53 52 52
142 143 150 154 158 158 154 156 162 158 156 155 155 161 170 172 171 162 165 179 179 181 188 186 181 178 180 165 151 144 128 109 104 101 113 103 144 123 168 182 202 211 198 194 220 215 199 201 233 231 189 199 190 151 62 110 130 112 104 107 104 122 114 105 100 93 89 80 81 79 75 73 70 66 63 61 57 53 51 51 51 55 56 50 49
139 146 152 153 157 160 160 157 163 156 156 156 158 166 172 173 172 164 168 176 178 187 186 175 166 158 155 147 141 131 127 109 95 89 103 148 222 37 343 247 193 215 271 182 230 182 159 195 229 49 81 107 135 98 84 102 124 132 139 115 93 92 104 110 105 97 84 79 81 84 82 79 74 70 67 63 60 58 56 54 52 51 55 55 50
146 151 150 149 156 160 161 157 155 154 157 157 160 169 173 172 168 166 169 174 178 186 175 140 144 146 127 141 134 117 107 113 104 98 99 137 50 266 218 218 194 219 202 211 202 208 333 223 150 135 155 131 126 140 165 139 141 154 115 128 123 90 112 112 108 99 85 77 79 88 87 82 76 72 69 66 62 61 59 57 56 54 53 57 57
154 151 149 154 153 161 161 162 152 155 158 162 163 168 175 166 169 170 170 169 177 173 146 130 143 141 104 110 99 113 130 124 108 112 88 52 64 5 317 247 190 215 193 206 221 171 215 164 145 175 169 165 103 102 91 130 129 126 120 90 82 123 131 114 103 98 94 83 82 86 88 87 84 78 71 65 64 61 60 59 57 55 54 53 57
149 150 152 159 154 157 164 168 155 156 154 166 166 170 162 161 170 167 163 160 158 148 126 133 130 106 171 132 89 114 128 122 115 116 95 53 37 296 279 281 216 220 176 214 214 188 187 154 178 173 167 133 140 116 134 86 63 83 108 106 95 86 94 97 104 112 109 100 93 91 91 92 88 83 77 71 65 63 64 63 61 58 56 55 54
153 152 153 158 155 162 164 172 155 161 153 162 163 157 161 156 162 150 160 143 136 135 130 133 111 143 184 84 121 137 124 112 119 119 117 125 149 330 154 5 319 243 177 194 196 177 172 202 148 182 167 128 121 80 90 76 68 68 64 67 80 87 88 100 115 121 118 112 99 94 94 87 86 85 85 83 75 68 65 65 64 62 58 56 54
154 150 154 156 164 166 166 172 158 163 156 156 158 153 152 152 146 149 154 129 135 133 137 136 130 154 159 119 163 149 120 126 129 139 121 83 287 260 17 258 243 203 157 143 160 135 138 156 176 164 180 100 76 78 85 83 79 68 68 64 69 73 86 89 91 97 107 111 113 107 99 91 86 88 92 91 86 80 73 68 65 64 60 55 50
151 150 151 162 162 168 163 168 163 159 165 157 147 148 147 151 140 151 145 134 136 141 137 131 136 151 144 143 150 131 135 125 148 135 145 152 189 261 190 265 273 309 137 117 107 122 48 48 20 81 104 86 93 97 86 81 76 71 67 67 68 68 73 76 84 89 90 88 98 106 106 96 92 86 78 87 93 91 82 72 67 64 62 54 48
149 154 160 163 162 169 161 169 163 161 163 159 151 152 148 148 149 152 142 145 142 143 137 135 134 146 139 152 154 145 137 125 139 142 119 129 161 157 164 330 307 334 273 64 135 102 90 81 60 41 34 88 92 93 90 84 80 69 63 65 69 72 70 80 83 85 90 98 89 81 80 93 104 85 64 48 61 85 84 79 69 61 61 56 47
153 157 157 159 165 167 161 166 162 164 158 153 150 148 151 149 150 141 139 145 140 125 132 121 129 137 137 132 144 155 144 137 145 125 133 100 23 356 303 236 232 294 332 39 37 77 76 67 58 73 67 90 100 80 89 90 81 77 69 67 65 71 76 75 78 82 91 89 77 70 66 63 63 68 67 48 43 55 90 81 70 56 51 52 46
152 154 157 160 164 168 163 164 166 168 149 151 147 142 145 147 143 139 143 125 119 132 116 122 130 135 140 137 148 155 145 128 133 149 147 142 172 205 207 201 189 184 53 37 88 110 94 75 39 62 92 120 103 100 82 88 83 78 71 65 57 66 74 86 86 90 85 91 98 91 81 67 67 68 61 58 47 38 65 90 76 61 44 48 41
154 154 157 161 167 170 168 160 166 166 146 154 149 145 145 146 131 140 116 113 130 132 115 126 134 133 140 148 146 145 139 125 134 164 146 157 174 184 166 160 139 81 62 56 71 92 108 106 69 53 104 122 114 111 103 91 88 79 72 69 60 63 73 83 82 79 93 104 99 103 109 106 87 86 75 66 49 56 59 43 36 21 11 16 9
155 155 157 162 167 170 162 156 161 162 147 153 146 146 138 119 101 113 105 115 135 115 123 131 126 129 146 149 138 140 139 130 135 139 126 136 163 151 131 136 125 110 90 94 102 96 104 102 93 68 70 103 115 113 116 108 94 84 73 61 64 55 52 63 70 75 64 80 87 72 55 57 96 94 97 83 72 69 67 57 39 21 358 7 12
153 156 161 166 168 168 160 155 160 159 151 151 144 139 125 111 116 104 99 111 114 117 136 135 135 150 148 139 138 137 133 134 150 157 142 158 152 128 121 122 120 104 108 96 89 99 111 99 89 99 93 84 83 110 112 105 86 80 71 52 50 60 51 59 64 64 67 62 72 77 72 67 42 81 113 126 94 94 87 81 72 42 17 4 0
155 160 164 169 170 167 161 163 162 160 157 156 149 148 133 121 122 134 132 141 146 147 138 135 135 141 139 140 135 133 130 139 165 158 144 135 121 119 102 93 92 103 110 124 125 106 111 124 113 108 113 106 98 103 111 111 107 63 49 57 43 29 52 61 61 68 78 78 66 62 49 43 46 30 211 136 117 106 110 119 140 113 35 330 340
163 164 168 169 167 163 165 165 162 162 159 155 151 151 145 159 152 157 138 146 147 149 146 156 157 147 147 146 141 139 139 157 173 192 140 116 120 112 106 115 110 113 119 131 120 114 103 90 95 112 126 129 128 156 147 114 61 133 129 92 29 13 1 41 32 43 75 79 97 94 77 66 21 357 66 119 147 133 138 162 183 162 206 310 291
162 167 169 164 166 167 167 165 165 159 157 158 155 152 142 146 140 148 139 137 145 148 147 159 159 149 151 150 147 141 149 165 195 150 110 108 115 117 106 104 104 118 120 119 109 102 124 151 122 127 135 110 115 159 168 124 139 123 120 95 148 80 337 8 350 40 96 72 72 87 101 75 294 308 354 35 93 96 144 219 222 196 224 230 262
164 168 168 166 170 175 164 163 161 158 161 162 151 136 138 132 121 128 133 136 151 143 128 144 142 140 156 167 150 150 159 172 151 114 110 112 116 107 100 103 106 121 132 131 123 127 113 84 91 127 132 132 138 168 196 126 123 138 150 193 181 125 113 274 198 274 157 140 115 125 132 186 234 272 5 18 107 114 10 18 321 257 240 233 244
173 172 166 168 177 176 166 161 161 166 162 159 147 135 125 118 121 117 117 103 107 120 124 143 159 162 150 154 164 162 165 158 139 125 112 104 105 106 101 102 91 75 118 124 138 151 135 119 107 98 133 149 143 131 35 106 130 171 145 108 80 124 208 204 122 286 232 132 219 178 199 214 230 251 185 191 136 128 71 7 333 316 287 254 250
177 173 168 169 169 172 164 161 163 164 161 160 150 145 146 143 144 144 145 146 149 152 163 167 168 164 162 154 145 142 123 102 99 104 99 90 94 100 100 96 93 90 105 108 96 85 90 99 114 121 112 142 140 123 115 64 128 129 151 163 167 171 158 184 98 227 328 227 201 209 222 206 235 241 306 97 113 104 99 17 301 300 299 276 250
175 166 169 168 167 172 162 165 166 164 163 160 156 150 149 152 154 156 153 155 150 161 158 161 152 152 141 132 113 91 98 102 89 97 99 101 101 100 100 98 98 94 88 91 91 94 82 76 71 73 116 134 120 126 143 153 60 26 80 133 149 135 136 128 196 111 156 308 84 190 178 264 106 97 116 133 191 166 242 208 274 284 292 288 300
167 166 168 168 169 173 161 165 163 165 168 162 162 160 155 154 152 153 153 152 156 155 159 157 146 141 127 124 115 98 93 99 102 93 100 103 106 107 108 107 103 101 100 105 112 106 86 71 74 89 75 96 125 133 151 157 139 200 177 122 89 90 123 104 126 167 157 163 251 307 338 235 86 311 308 97 186 219 236 272 262 282 293 319 24
165 169 170 170 166 163 160 162 164 164 170 168 164 163 158 157 156 154 148 146 141 141 140 134 132 130 122 118 110 110 96 90 96 101 97 103 106 116 119 116 101 102 100 96 88 90 99 99 87 75 83 77 89 115 109 120 106 170 125 68 84 83 79 76 86 77 131 135 215 185 243 315 9 306 279 249 254 245 246 249 254 270 322 16 62
169 165 164 163 166 160 164 166 166 168 169 170 163 159 157 157 157 157 148 143 137 132 131 133 133 130 122 120 116 112 109 100 99 103 104 108 114 107 102 110 122 110 102 102 97 91 90 94 102 106 99 91 89 96 108 113 102 82 86 112 81 44 42 28 22 24 37 80 149 197 209 185 221 274 258 266 262 253 263 266 268 319 360 78 43
164 164 165 166 167 164 165 168 168 167 169 169 165 161 158 161 160 157 153 149 148 142 139 138 137 133 131 132 127 121 114 118 112 116 124 120 105 101 110 117 117 115 108 104 106 106 101 103 105 98 95 103 105 103 95 92 92 82 77 86 91 96 124 116 81 59 99 75 52 14 344 161 194 234 262 246 265 286 263 260 223 97 93 69 40